THY6805 LTCA-LTAC

Flight info

Callsign THY6805
Flight time N/A
Altitude 34000
Route LTCA/07R N0444F340 BULU1B BULUT UL614 GOBIT GOBI1P LTAC/21L
Aircraft A321/M-CDT/C

Departure

Time 2026-05-05 11:26
Airport Elazığ Airport (LTCA)

Arrival

Time N/A
Airport Esenboğa International Airport (LTAC)
Time Latitude Longitude Altitude Speed Heading
2026-05-05 11:11 38.59950 39.26915 2925 ft 0 kts 303°
2026-05-05 11:21 38.59954 39.26878 2925 ft 7 kts 256°
2026-05-05 11:22 38.59919 39.26837 2926 ft 7 kts 224°
2026-05-05 11:22 38.59900 39.26775 2922 ft 8 kts 256°
2026-05-05 11:22 38.59890 39.26699 2928 ft 9 kts 262°
2026-05-05 11:22 38.59879 39.26619 2929 ft 10 kts 257°
2026-05-05 11:23 38.59860 39.26539 2930 ft 10 kts 252°
2026-05-05 11:23 38.59838 39.26450 2929 ft 11 kts 252°
2026-05-05 11:23 38.59784 39.26389 2932 ft 11 kts 185°
2026-05-05 11:23 38.59706 39.26407 2930 ft 12 kts 166°
2026-05-05 11:24 38.59623 39.26433 2932 ft 11 kts 166°
2026-05-05 11:24 38.59565 39.26451 2933 ft 7 kts 167°
2026-05-05 11:24 38.59515 39.26466 2934 ft 8 kts 167°
2026-05-05 11:24 38.59456 39.26525 2934 ft 14 kts 99°
2026-05-05 11:25 38.59478 39.26672 2931 ft 24 kts 76°
2026-05-05 11:25 38.59560 39.27096 2921 ft 74 kts 76°
2026-05-05 11:25 38.59724 39.27933 2915 ft 118 kts 76°
2026-05-05 11:25 38.59954 39.29104 2901 ft 152 kts 76°
2026-05-05 11:26 38.60205 39.30455 3319 ft 143 kts 76°
2026-05-05 11:26 38.60437 39.31680 3877 ft 150 kts 76°
2026-05-05 11:26 38.60703 39.33110 4391 ft 177 kts 78°
2026-05-05 11:26 38.60991 39.34680 4887 ft 184 kts 79°
2026-05-05 11:27 38.61289 39.36302 5335 ft 188 kts 80°
2026-05-05 11:27 38.61590 39.37936 5794 ft 190 kts 78°
2026-05-05 11:27 38.62273 39.39371 6252 ft 198 kts 36°
2026-05-05 11:27 38.63598 39.39765 6707 ft 203 kts 349°
2026-05-05 11:28 38.64906 39.39064 7188 ft 207 kts 326°
2026-05-05 11:28 38.65968 39.37781 7757 ft 215 kts 300°
2026-05-05 11:28 38.66593 39.36029 8331 ft 220 kts 289°
2026-05-05 11:28 38.67173 39.34182 8897 ft 227 kts 289°
2026-05-05 11:29 38.67774 39.32247 9365 ft 240 kts 289°
2026-05-05 11:29 38.68405 39.30201 9829 ft 256 kts 289°
2026-05-05 11:29 38.69087 39.27984 10263 ft 279 kts 289°
2026-05-05 11:29 38.69829 39.25577 10693 ft 303 kts 289°
2026-05-05 11:30 38.70639 39.22960 11032 ft 328 kts 289°
2026-05-05 11:30 38.71359 39.20091 11361 ft 349 kts 282°
2026-05-05 11:30 38.71898 39.16974 11693 ft 368 kts 278°
2026-05-05 11:30 38.72353 39.13616 12048 ft 387 kts 277°
2026-05-05 11:31 38.72781 39.10148 12520 ft 401 kts 277°
2026-05-05 11:31 38.73227 39.06593 13280 ft 407 kts 277°
2026-05-05 11:31 38.73706 39.03001 14079 ft 411 kts 277°
2026-05-05 11:31 38.74218 38.99389 14837 ft 415 kts 278°
2026-05-05 11:32 38.74757 38.95741 15615 ft 418 kts 278°
2026-05-05 11:32 38.75308 38.92072 16407 ft 420 kts 278°
2026-05-05 11:32 38.75866 38.88390 17216 ft 421 kts 278°
2026-05-05 11:32 38.76431 38.84700 18060 ft 422 kts 278°
2026-05-05 11:33 38.76998 38.81006 18754 ft 425 kts 278°
2026-05-05 11:33 38.77567 38.77275 19336 ft 429 kts 278°
2026-05-05 11:33 38.78132 38.73508 19940 ft 432 kts 278°
2026-05-05 11:33 38.78696 38.69706 20552 ft 436 kts 278°
2026-05-05 11:34 38.79264 38.65882 21173 ft 437 kts 277°
2026-05-05 11:34 38.79837 38.62049 21808 ft 438 kts 277°
2026-05-05 11:34 38.80410 38.58221 22456 ft 437 kts 277°
2026-05-05 11:34 38.80979 38.54401 23127 ft 435 kts 277°
2026-05-05 11:35 38.81547 38.50593 23735 ft 434 kts 277°
2026-05-05 11:35 38.82106 38.46796 24254 ft 434 kts 277°
2026-05-05 11:35 38.82663 38.42986 24706 ft 435 kts 277°
2026-05-05 11:35 38.83221 38.39168 25179 ft 436 kts 276°
2026-05-05 11:36 38.83781 38.35341 25652 ft 437 kts 276°
2026-05-05 11:36 38.84343 38.31516 26135 ft 437 kts 276°
2026-05-05 11:36 38.84904 38.27691 26605 ft 438 kts 276°
2026-05-05 11:36 38.85467 38.23839 27000 ft 440 kts 276°
2026-05-05 11:37 38.86029 38.19977 27401 ft 442 kts 276°
2026-05-05 11:37 38.86592 38.16095 27811 ft 443 kts 276°
2026-05-05 11:37 38.87156 38.12195 28221 ft 446 kts 276°
2026-05-05 11:37 38.87720 38.08277 28640 ft 448 kts 275°
2026-05-05 11:38 38.88286 38.04342 29073 ft 449 kts 275°
2026-05-05 11:38 38.88858 38.00343 29510 ft 450 kts 275°
2026-05-05 11:38 38.89423 37.96391 29986 ft 450 kts 275°
2026-05-05 11:38 38.89988 37.92446 30418 ft 448 kts 275°
2026-05-05 11:39 38.90549 37.88524 30849 ft 447 kts 276°
2026-05-05 11:39 38.91109 37.84597 31291 ft 446 kts 276°
2026-05-05 11:39 38.91661 37.80692 31742 ft 444 kts 276°
2026-05-05 11:39 38.92209 37.76798 32198 ft 442 kts 276°
2026-05-05 11:40 38.92754 37.72925 32667 ft 440 kts 277°
2026-05-05 11:40 38.93297 37.69076 33140 ft 437 kts 277°
2026-05-05 11:40 38.93838 37.65231 33460 ft 439 kts 277°
2026-05-05 11:40 38.94378 37.61359 33655 ft 441 kts 277°
2026-05-05 11:41 38.94918 37.57471 33852 ft 443 kts 277°
2026-05-05 11:41 38.95997 37.49656 33927 ft 445 kts 277°
2026-05-05 11:42 38.96899 37.43148 33924 ft 445 kts 277°
2026-05-05 11:42 38.97986 37.35305 33927 ft 446 kts 277°
2026-05-05 11:43 38.99059 37.27454 33929 ft 447 kts 277°
2026-05-05 11:43 39.00136 37.19499 33934 ft 449 kts 277°
2026-05-05 11:44 39.01209 37.11579 33934 ft 450 kts 278°
2026-05-05 11:44 39.02284 37.03647 33937 ft 451 kts 278°
2026-05-05 11:45 39.03352 36.95699 33939 ft 451 kts 278°
2026-05-05 11:45 39.04415 36.87747 33945 ft 452 kts 278°
2026-05-05 11:46 39.05475 36.79777 33951 ft 452 kts 278°
2026-05-05 11:46 39.06525 36.71795 33957 ft 452 kts 278°
2026-05-05 11:47 39.07570 36.63808 33960 ft 453 kts 278°
2026-05-05 11:47 39.08615 36.55820 33958 ft 453 kts 278°
2026-05-05 11:48 39.10174 36.43805 33956 ft 454 kts 278°
2026-05-05 11:48 39.11207 36.35782 33960 ft 454 kts 278°
2026-05-05 11:49 39.12234 36.27761 33968 ft 454 kts 279°
2026-05-05 11:49 39.13250 36.19722 33963 ft 455 kts 279°
2026-05-05 11:50 39.14262 36.11692 33965 ft 454 kts 279°
2026-05-05 11:50 39.15316 36.03668 33968 ft 454 kts 283°
2026-05-05 11:51 39.17428 35.96002 33967 ft 454 kts 291°
2026-05-05 11:51 39.19703 35.88352 33968 ft 454 kts 290°
2026-05-05 11:52 39.21943 35.80741 33970 ft 454 kts 291°
2026-05-05 11:52 39.24180 35.73125 33969 ft 454 kts 291°
2026-05-05 11:53 39.26418 35.65510 33973 ft 454 kts 291°
2026-05-05 11:53 39.28657 35.57890 33968 ft 454 kts 291°
2026-05-05 11:54 39.30884 35.50272 33970 ft 453 kts 291°
2026-05-05 11:54 39.33108 35.42647 33965 ft 454 kts 291°
2026-05-05 11:55 39.35330 35.35011 33971 ft 454 kts 291°